Temp_Advection
nan nan nan nan nan nan nan nan nan nan nan nan nan nan nan nan nan nan nan nan nan nan nan nan nan nan nan nan nan nan nan nan
nan 0 1 1 0 0 0 0 0 0 0 0 0 0 0 0 0 0 0 0 -0 -0 -0 -0 -0 -0 -0 -0 -0 -0 -0 nan
nan 0 0 1 0 0 0 0 0 0 0 0 0 0 0 0 0 0 0 0 -0 -0 -0 -0 -0 -0 -0 -0 -0 -0 -0 nan
nan 0 1 0 1 1 1 0 0 0 0 0 0 0 0 0 0 0 0 0 0 -0 -0 -0 -0 -0 -0 -0 -0 -0 -0 nan
nan -0 -0 -0 0 0 0 -0 0 0 0 0 0 0 0 0 0 0 0 0 0 0 -0 -0 -0 -0 -0 -0 0 0 -0 nan
nan -0 -0 -0 -0 0 -0 0 0 0 0 0 -0 0 0 0 0 0 0 0 0 0 -0 0 0 -0 -0 -0 0 0 0 nan
nan -0 -0 -0 -0 -0 0 0 0 0 -0 -0 0 0 -0 0 0 0 0 0 0 0 0 0 0 -0 -0 -0 -0 -0 -0 nan
nan -0 -0 -0 0 0 0 -0 -0 -0 -0 -0 0 -0 0 0 0 0 0 0 0 0 0 0 0 -0 -0 -0 -0 -0 -0 nan
nan -0 -0 -0 0 0 0 -0 -0 -0 0 0 0 0 0 0 0 0 0 0 0 0 -0 0 0 -0 -0 -0 -0 -0 -1 nan
nan -0 -0 -0 0 0 0 -0 -0 0 0 0 0 0 0 0 0 0 0 0 0 0 0 0 0 -0 -0 -1 -0 -0 -0 nan
nan 0 0 0 0 0 -0 -0 0 0 -0 -0 0 0 0 0 0 0 0 0 0 0 0 0 -0 -0 -0 -0 -0 -0 -0 nan
nan 0 0 0 -0 -0 0 0 0 -0 -0 0 0 0 0 0 0 -0 0 0 0 0 0 -0 -0 -0 -0 -0 -0 -0 0 nan
nan 0 0 -0 -0 -0 0 0 -0 -0 -0 0 0 0 0 0 -0 -0 0 0 0 0 0 0 -0 0 0 0 -0 0 0 nan
nan -1 -0 -1 -0 0 0 0 0 0 0 0 0 0 0 0 -0 0 0 0 0 0 0 0 0 0 0 -0 -0 -0 -0 nan
nan -1 -1 -0 1 1 0 0 -0 -0 0 0 0 0 0 0 0 0 0 0 0 -0 -0 -0 -0 -0 0 0 0 0 -0 nan
nan 0 0 0 1 1 -0 -0 -0 -0 0 0 0 0 0 0 1 0 0 0 0 0 0 -0 -0 -0 -0 0 0 0 0 nan
nan 1 -0 1 1 0 0 0 0 0 1 1 0 1 1 1 1 0 0 0 0 -0 0 0 0 0 0 0 0 0 0 nan
nan -0 1 1 0 0 1 1 0 0 0 1 1 1 1 1 0 1 1 0 -0 -0 -0 -0 -0 0 0 0 0 0 0 nan
nan 0 1 0 0 -0 1 1 -0 -0 0 1 1 1 1 1 1 0 1 1 0 -0 -0 -0 0 -0 -0 -0 0 0 0 nan
nan nan nan nan nan nan nan nan nan nan nan nan nan nan nan nan nan nan nan nan nan nan nan nan nan nan nan nan nan nan nan nan
Wind_Speed
31 31 27 22 21 21 20 19 18 21 24 25 26 25 24 23 21 19 16 14 12 10 9 9 11 14 16 12 11 10 11 13
29 32 29 21 20 17 17 17 19 21 23 24 23 22 20 18 17 15 12 10 9 7 6 8 11 12 15 12 12 11 13 14
36 35 30 16 11 13 15 18 21 23 22 22 20 18 17 15 14 12 9 6 7 5 5 7 10 12 16 14 15 15 16 15
39 40 34 28 24 24 23 23 23 22 21 20 19 17 15 13 13 10 8 6 5 2 4 7 10 12 14 13 15 15 15 13
30 30 21 19 21 22 24 24 22 21 19 19 17 16 13 13 11 8 5 4 1 1 3 7 9 9 9 14 17 17 12 9
30 23 20 20 22 23 23 23 21 20 18 16 14 14 13 12 9 7 5 4 4 3 4 6 7 9 12 15 17 15 13 12
26 23 23 22 23 24 25 23 21 18 18 14 12 13 11 12 9 8 8 8 7 5 5 6 9 10 13 16 15 13 13 15
24 25 23 23 24 25 25 23 20 17 15 12 11 10 9 10 11 11 10 10 9 8 8 8 10 12 15 14 13 12 12 13
24 22 24 24 25 26 26 23 21 17 13 11 9 9 9 11 11 13 13 12 10 9 10 10 10 13 13 12 11 12 13 14
25 23 26 27 28 27 25 22 20 15 12 11 10 10 14 14 15 14 12 10 10 11 11 10 12 14 15 14 13 15 11 9
26 25 26 28 28 27 23 23 21 17 16 12 9 16 18 17 15 13 12 11 12 11 10 12 14 15 15 15 17 12 4 12
29 29 28 28 29 27 26 26 23 20 18 14 11 17 18 17 15 14 13 11 10 9 12 14 14 15 15 16 19 7 5 7
32 30 32 32 32 30 31 29 25 23 19 14 13 15 16 17 16 13 10 8 9 12 14 13 14 15 17 20 17 4 11 9
35 34 34 34 34 32 32 29 26 22 18 15 14 15 16 16 14 11 10 10 12 13 13 13 15 16 18 21 7 10 13 11
35 37 36 35 32 31 30 30 26 25 22 17 15 15 14 14 13 12 12 13 12 13 15 16 16 18 20 16 7 5 16 15
34 37 39 37 33 34 34 32 29 25 22 18 17 17 14 16 15 14 14 13 12 13 15 18 19 19 19 17 15 15 14 12
39 40 37 36 35 33 31 31 27 23 21 20 19 18 18 18 15 15 14 13 12 13 18 19 21 22 20 18 17 17 18 20
42 39 36 33 30 30 29 33 28 22 19 22 21 20 20 19 18 16 15 12 9 16 19 21 23 22 21 19 19 19 20 19
40 39 38 33 33 25 26 29 25 22 20 24 25 24 24 23 20 16 13 12 20 18 20 22 21 20 19 17 18 18 16 20
39 37 39 33 33 29 27 28 25 22 23 25 27 28 29 29 24 23 18 19 16 17 18 22 22 19 18 19 22 21 21 19
Wind_Direction
153 153 128 147 151 138 144 146 149 143 139 138 134 131 129 126 123 119 116 110 100 91 88 71 49 43 38 47 32 21 18 7
126 121 133 137 149 137 144 153 148 144 142 138 135 129 126 126 123 118 115 108 99 95 76 49 27 28 23 30 21 15 13 7
131 133 131 131 137 140 157 153 151 146 144 140 134 131 127 125 123 124 123 125 113 104 72 29 18 13 9 7 4 6 2 357
130 137 144 154 157 170 168 161 156 151 147 140 130 131 131 134 132 143 149 137 124 93 44 14 5 5 353 351 354 354 348 350
135 156 159 174 176 172 168 163 155 152 150 148 142 136 139 143 145 144 160 167 142 297 354 358 344 335 341 346 342 341 349 348
153 158 165 182 181 175 169 167 164 161 162 161 157 154 152 156 170 169 181 219 236 246 321 318 317 333 334 333 336 338 339 334
165 174 186 188 181 177 173 169 172 180 179 172 173 176 177 184 194 203 211 224 226 244 266 296 309 316 325 334 332 326 326 322
175 182 182 189 182 182 179 182 187 188 188 191 198 194 206 209 212 215 213 220 232 242 262 298 304 319 331 332 329 324 328 325
184 183 186 187 184 185 186 194 198 200 202 207 217 225 233 229 225 219 220 224 232 257 282 295 315 322 326 336 347 348 342 342
180 180 187 187 185 188 194 203 208 206 210 216 222 232 232 233 219 224 226 235 251 267 281 306 315 324 340 354 354 345 333 343
188 187 188 188 191 197 207 214 212 213 212 208 221 231 229 225 229 235 237 243 255 272 303 311 319 337 348 353 352 351 358 333
198 195 194 195 199 213 217 212 213 217 212 220 238 233 227 224 225 229 233 240 266 300 307 314 335 343 345 346 344 314 301 311
204 202 202 206 205 212 213 216 219 215 216 236 236 220 222 223 222 228 237 264 292 298 309 327 335 335 336 336 345 273 294 241
208 209 210 212 215 217 215 218 221 224 234 244 234 222 214 218 228 242 261 280 294 303 314 319 322 328 333 336 336 298 283 262
214 217 216 217 218 218 220 223 225 228 236 235 233 219 219 230 243 253 268 285 293 306 306 307 315 322 322 318 310 279 300 299
211 213 215 216 218 221 227 230 229 241 256 254 232 224 227 237 242 255 270 279 292 296 306 314 319 317 313 307 298 293 296 295
212 213 215 217 220 226 232 233 240 251 255 237 225 225 227 234 245 259 262 265 278 301 311 305 307 307 305 302 297 291 289 291
216 218 219 218 220 230 242 236 239 237 238 230 223 227 229 227 237 241 244 256 285 299 300 306 306 304 303 302 299 298 295 289
221 223 224 218 223 234 248 244 234 241 247 232 227 229 223 226 230 235 232 248 293 292 305 300 305 308 307 310 311 308 289 290
226 230 225 227 225 236 246 232 239 240 246 239 233 225 222 223 227 237 265 292 281 283 296 301 300 306 314 316 311 301 296 296
Height
1514 1525 1529 1541 1545 1541 1545 1548 1552 1554 1555 1557 1557 1558 1559 1561 1563 1564 1564 1566 1567 1570 1569 1569 1569 1569 1570 1569 1569 1566 1565 1564
1517 1524 1536 1542 1545 1544 1547 1552 1556 1557 1558 1559 1560 1561 1563 1565 1566 1566 1567 1568 1569 1569 1571 1570 1569 1568 1570 1570 1569 1567 1565 1565
1526 1531 1536 1543 1544 1546 1553 1555 1556 1557 1560 1560 1561 1564 1565 1567 1567 1567 1569 1570 1569 1571 1570 1570 1569 1569 1569 1569 1568 1566 1563 1563
1528 1533 1539 1545 1545 1548 1554 1555 1557 1559 1560 1561 1563 1565 1566 1568 1568 1570 1569 1569 1569 1571 1571 1572 1571 1568 1570 1569 1567 1565 1564 1563
1534 1537 1540 1544 1548 1552 1554 1556 1558 1560 1561 1562 1564 1565 1565 1567 1571 1570 1570 1571 1569 1571 1570 1570 1570 1571 1571 1568 1565 1563 1563 1562
1532 1538 1542 1546 1549 1552 1555 1556 1557 1560 1562 1563 1564 1565 1567 1568 1571 1569 1570 1572 1572 1572 1570 1570 1569 1569 1570 1569 1565 1563 1561 1559
1533 1538 1542 1545 1549 1552 1555 1556 1557 1560 1561 1563 1565 1566 1566 1568 1569 1570 1570 1572 1573 1570 1570 1570 1569 1569 1568 1568 1565 1563 1559 1558
1534 1537 1540 1545 1548 1551 1555 1557 1558 1560 1561 1561 1565 1565 1566 1568 1568 1569 1569 1571 1571 1569 1571 1569 1568 1567 1567 1565 1563 1561 1557 1555
1533 1536 1540 1544 1549 1552 1554 1557 1558 1559 1561 1561 1563 1565 1565 1567 1566 1569 1569 1570 1570 1569 1568 1567 1566 1566 1566 1564 1561 1558 1555 1552
1533 1535 1539 1543 1547 1551 1554 1556 1558 1558 1561 1562 1561 1562 1565 1564 1565 1568 1568 1567 1567 1568 1568 1565 1564 1564 1563 1562 1560 1557 1554 1553
1533 1535 1539 1543 1546 1550 1552 1554 1557 1558 1560 1560 1559 1564 1563 1563 1565 1566 1565 1565 1567 1567 1564 1564 1561 1559 1559 1558 1557 1556 1555 1554
1534 1537 1539 1544 1546 1549 1550 1552 1555 1556 1557 1558 1558 1561 1560 1561 1562 1564 1563 1564 1565 1562 1563 1560 1556 1556 1556 1555 1555 1554 1555 1554
1532 1534 1537 1541 1543 1545 1547 1548 1550 1554 1555 1556 1558 1558 1558 1558 1561 1562 1561 1560 1560 1560 1559 1558 1555 1554 1554 1553 1551 1552 1552 1552
1529 1532 1536 1538 1541 1543 1545 1547 1550 1552 1552 1553 1554 1555 1555 1557 1559 1559 1559 1557 1556 1557 1556 1555 1555 1554 1552 1550 1549 1551 1549 1550
1525 1529 1532 1534 1538 1542 1544 1545 1547 1548 1548 1550 1550 1551 1553 1557 1556 1556 1555 1554 1554 1555 1554 1553 1551 1550 1550 1551 1548 1547 1546 1545
1521 1524 1527 1531 1535 1538 1539 1541 1542 1544 1546 1547 1547 1550 1552 1554 1554 1553 1553 1553 1553 1554 1553 1553 1551 1548 1547 1546 1547 1546 1544 1540
1518 1521 1524 1528 1531 1534 1535 1537 1539 1543 1543 1544 1546 1548 1550 1551 1552 1553 1553 1553 1551 1550 1547 1548 1548 1547 1545 1543 1542 1539 1540 1538
1516 1519 1521 1525 1529 1531 1532 1533 1537 1538 1539 1540 1543 1545 1546 1548 1549 1549 1549 1550 1549 1547 1547 1546 1545 1543 1541 1539 1538 1536 1535 1534
1513 1517 1519 1522 1524 1526 1527 1528 1532 1535 1536 1537 1539 1541 1543 1544 1545 1548 1545 1542 1543 1545 1542 1540 1541 1539 1538 1535 1533 1532 1531 1529
1510 1512 1514 1518 1519 1521 1523 1525 1528 1531 1534 1536 1536 1537 1538 1538 1539 1536 1540 1542 1541 1539 1539 1537 1535 1534 1533 1530 1529 1527 1525 1524